When you browse on this site, cookies collect data to enhance your experience and personalize the content and advertising you see.
Visit our Privacy Policy to learn more. By continuing to use the site, you agree to this use of cookies and data.

Hourly Weather Jonkoping

Today, 5 July, Sunday

Time Temperature Precipitation Wind Pressure Humidity
00:00 +13°C° 0 mm 2 mps 743 mmHg 97%
01:00 +13°C° 0 mm 2 mps 743 mmHg 97%
02:00 +14°C° 0.2 mm 2 mps 743 mmHg 98%
03:00 +14°C° 0.2 mm 2 mps 742 mmHg 98%
04:00 +15°C° 0.2 mm 2 mps 742 mmHg 98%
05:00 +15°C° 0.2 mm 2 mps 742 mmHg 98%
06:00 +16°C° 0.2 mm 3 mps 741 mmHg 97%
07:00 +16°C° 0.2 mm 3 mps 741 mmHg 96%
08:00 +15°C° 0.9 mm 4 mps 740 mmHg 96%
09:00 +16°C° 0.9 mm 5 mps 739 mmHg 97%
10:00 +16°C° 0.9 mm 6 mps 738 mmHg 97%
11:00 +16°C° 1.1 mm 6 mps 737 mmHg 96%
12:00 +16°C° 1.1 mm 7 mps 737 mmHg 95%
13:00 +17°C° 1.1 mm 7 mps 736 mmHg 94%
14:00 +17°C° 0.4 mm 8 mps 736 mmHg 87%
15:00 +18°C° 0.4 mm 8 mps 736 mmHg 80%
16:00 +19°C° 0.4 mm 9 mps 736 mmHg 74%
17:00 +17°C° 0 mm 9 mps 736 mmHg 73%
18:00 +16°C° 0 mm 8 mps 737 mmHg 73%
19:00 +15°C° 0 mm 8 mps 737 mmHg 72%
20:00 +13°C° 0.1 mm 8 mps 737 mmHg 73%
21:00 +12°C° 0.1 mm 8 mps 737 mmHg 74%
22:00 +11°C° 0.1 mm 8 mps 738 mmHg 76%
23:00 +11°C° 0 mm 8 mps 737 mmHg 76%

Tomorrow, 6 July, Monday

Time Temperature Precipitation Wind Pressure Humidity
00:00 +11°C° 0 mm 8 mps 737 mmHg 77%
01:00 +11°C° 0 mm 8 mps 737 mmHg 77%
02:00 +11°C° 0 mm 8 mps 737 mmHg 78%
03:00 +11°C° 0 mm 8 mps 737 mmHg 79%
04:00 +10°C° 0 mm 8 mps 737 mmHg 80%
05:00 +11°C° 0.1 mm 8 mps 737 mmHg 79%
06:00 +11°C° 0.1 mm 8 mps 737 mmHg 77%
07:00 +12°C° 0.1 mm 8 mps 737 mmHg 76%
08:00 +12°C° 0.2 mm 8 mps 737 mmHg 74%
09:00 +13°C° 0.2 mm 9 mps 737 mmHg 72%
10:00 +13°C° 0.2 mm 9 mps 737 mmHg 71%
11:00 +15°C° 0.2 mm 9 mps 737 mmHg 69%
12:00 +15°C° 0.2 mm 9 mps 737 mmHg 67%
13:00 +15°C° 0.2 mm 9 mps 737 mmHg 65%
14:00 +15°C° 0.1 mm 9 mps 737 mmHg 63%
15:00 +16°C° 0.1 mm 9 mps 737 mmHg 61%
16:00 +16°C° 0.1 mm 9 mps 738 mmHg 59%
17:00 +15°C° 0.1 mm 8 mps 738 mmHg 68%
18:00 +13°C° 0.1 mm 8 mps 738 mmHg 76%
19:00 +11°C° 0.1 mm 7 mps 738 mmHg 85%
20:00 +11°C° 0.1 mm 7 mps 739 mmHg 86%
21:00 +11°C° 0.1 mm 6 mps 739 mmHg 87%
22:00 +13°C° 0.1 mm 5 mps 740 mmHg 88%
23:00 +13°C° 0.1 mm 5 mps 741 mmHg 88%

Day after tomorrow, 7 July, Tuesday

Time Temperature Precipitation Wind Pressure Humidity
00:00 +12°C° 0.1 mm 4 mps 741 mmHg 89%
01:00 +12°C° 0.1 mm 4 mps 742 mmHg 90%
02:00 +12°C° 0.1 mm 4 mps 742 mmHg 91%
03:00 +12°C° 0.1 mm 3 mps 743 mmHg 93%
04:00 +11°C° 0.1 mm 3 mps 743 mmHg 94%
05:00 +12°C° 0 mm 3 mps 744 mmHg 89%
06:00 +13°C° 0 mm 3 mps 744 mmHg 84%
07:00 +14°C° 0 mm 3 mps 745 mmHg 79%
08:00 +15°C° 0.2 mm 4 mps 745 mmHg 73%
09:00 +16°C° 0.2 mm 5 mps 746 mmHg 68%
10:00 +17°C° 0.2 mm 6 mps 746 mmHg 63%
11:00 +17°C° 0.1 mm 6 mps 746 mmHg 56%
12:00 +19°C° 0.1 mm 6 mps 747 mmHg 49%
13:00 +20°C° 0.1 mm 6 mps 747 mmHg 43%
14:00 +19°C° 0.1 mm 6 mps 747 mmHg 48%
15:00 +17°C° 0.1 mm 6 mps 747 mmHg 54%
16:00 +16°C° 0.1 mm 6 mps 747 mmHg 60%
17:00 +15°C° 0.2 mm 6 mps 747 mmHg 68%
18:00 +14°C° 0.2 mm 5 mps 747 mmHg 75%
19:00 +13°C° 0.2 mm 4 mps 747 mmHg 83%
20:00 +12°C° 0.1 mm 4 mps 747 mmHg 86%
21:00 +11°C° 0.1 mm 4 mps 747 mmHg 88%
22:00 +11°C° 0.1 mm 4 mps 747 mmHg 91%
23:00 +11°C° 0.3 mm 4 mps 747 mmHg 92%

8 July, Wednesday

Time Temperature Precipitation Wind Pressure Humidity
00:00 +11°C° 0.3 mm 4 mps 747 mmHg 93%
01:00 +11°C° 0.3 mm 4 mps 746 mmHg 94%
02:00 +11°C° 0.1 mm 3 mps 746 mmHg 93%
03:00 +11°C° 0.1 mm 3 mps 746 mmHg 92%
04:00 +11°C° 0.1 mm 3 mps 745 mmHg 91%
05:00 +11°C° 0.3 mm 3 mps 745 mmHg 92%
06:00 +11°C° 0.3 mm 3 mps 745 mmHg 94%
07:00 +11°C° 0.3 mm 3 mps 745 mmHg 95%
08:00 +12°C° 0.8 mm 2 mps 745 mmHg 95%
09:00 +12°C° 0.8 mm 2 mps 745 mmHg 96%
10:00 +12°C° 0.8 mm 1 mps 745 mmHg 96%
11:00 +12°C° 1.3 mm 1 mps 745 mmHg 95%
12:00 +12°C° 1.3 mm 2 mps 744 mmHg 94%
13:00 +12°C° 1.3 mm 2 mps 744 mmHg 92%
14:00 +12°C° 0.6 mm 3 mps 745 mmHg 87%
15:00 +13°C° 0.6 mm 4 mps 745 mmHg 82%
16:00 +13°C° 0.6 mm 4 mps 745 mmHg 77%
17:00 +13°C° 0.1 mm 4 mps 746 mmHg 74%
18:00 +14°C° 0.1 mm 5 mps 746 mmHg 71%
19:00 +14°C° 0.1 mm 5 mps 746 mmHg 68%
20:00 +13°C° 0 mm 5 mps 747 mmHg 71%
21:00 +12°C° 0 mm 5 mps 747 mmHg 74%
22:00 +11°C° 0 mm 4 mps 747 mmHg 78%
23:00 +11°C° 0 mm 4 mps 748 mmHg 80%

9 July, Thursday

Time Temperature Precipitation Wind Pressure Humidity
00:00 +10°C° 0 mm 4 mps 748 mmHg 81%
01:00 +10°C° 0 mm 3 mps 748 mmHg 83%
02:00 +10°C° 0 mm 3 mps 749 mmHg 85%
03:00 +9°C° 0 mm 2 mps 749 mmHg 86%
04:00 +9°C° 0 mm 2 mps 749 mmHg 88%
05:00 +12°C° 0 mm 2 mps 750 mmHg 80%
06:00 +14°C° 0 mm 1 mps 750 mmHg 72%
07:00 +16°C° 0 mm 1 mps 751 mmHg 64%
08:00 +18°C° 0 mm 1 mps 751 mmHg 57%
09:00 +20°C° 0 mm 1 mps 751 mmHg 50%
10:00 +22°C° 0 mm 1 mps 751 mmHg 43%
11:00 +21°C° 0 mm 1 mps 751 mmHg 43%
12:00 +21°C° 0 mm 1 mps 751 mmHg 42%
13:00 +21°C° 0 mm 1 mps 751 mmHg 42%
14:00 +20°C° 0 mm 2 mps 750 mmHg 43%
15:00 +20°C° 0 mm 2 mps 750 mmHg 45%
16:00 +20°C° 0 mm 2 mps 750 mmHg 46%
17:00 +19°C° 0 mm 3 mps 750 mmHg 54%
18:00 +18°C° 0 mm 3 mps 750 mmHg 61%
19:00 +17°C° 0 mm 4 mps 750 mmHg 69%
20:00 +14°C° 0 mm 3 mps 750 mmHg 75%
21:00 +13°C° 0 mm 3 mps 750 mmHg 82%
22:00 +12°C° 0 mm 2 mps 750 mmHg 88%
23:00 +10°C° 0 mm 2 mps 750 mmHg 89%

10 July, Friday

Time Temperature Precipitation Wind Pressure Humidity
00:00 +10°C° 0 mm 2 mps 750 mmHg 90%
01:00 +10°C° 0 mm 2 mps 750 mmHg 91%
02:00 +10°C° 0.2 mm 2 mps 749 mmHg 91%
03:00 +11°C° 0.2 mm 3 mps 748 mmHg 91%
04:00 +11°C° 0.2 mm 3 mps 748 mmHg 91%
05:00 +11°C° 0.7 mm 4 mps 747 mmHg 93%
06:00 +11°C° 0.7 mm 4 mps 747 mmHg 94%
07:00 +10°C° 0.7 mm 5 mps 746 mmHg 95%
08:00 +12°C° 0.2 mm 5 mps 746 mmHg 95%
09:00 +12°C° 0.2 mm 5 mps 745 mmHg 94%
10:00 +13°C° 0.2 mm 6 mps 745 mmHg 93%
11:00 +13°C° 0.3 mm 6 mps 744 mmHg 93%
12:00 +14°C° 0.3 mm 6 mps 744 mmHg 93%
13:00 +14°C° 0.3 mm 6 mps 743 mmHg 93%
14:00 +14°C° 0.3 mm 6 mps 743 mmHg 88%
15:00 +15°C° 0.3 mm 6 mps 742 mmHg 82%
16:00 +15°C° 0.3 mm 6 mps 742 mmHg 77%
17:00 +15°C° 0.1 mm 6 mps 741 mmHg 77%
18:00 +14°C° 0.1 mm 7 mps 741 mmHg 77%
19:00 +14°C° 0.1 mm 7 mps 741 mmHg 77%
20:00 +12°C° 0.2 mm 7 mps 740 mmHg 81%
21:00 +12°C° 0.2 mm 7 mps 740 mmHg 85%
22:00 +11°C° 0.2 mm 7 mps 740 mmHg 89%
23:00 +11°C° 0.3 mm 7 mps 740 mmHg 90%
Show more